Regional Weather Roundup
Issued by NWS

Home | Current Version | Previous Version | Graphics & Text | Print | Product List | Glossary On
Versions: 1 2 3 4 5 6 7 8 9 10 11 12 13 14 15 16 17 18 19 20 21 22 23 24 25 26 27 28 29 30 31 32 33 34 35 36 37 38 39 40 41 42 43 44 45 46 47 48 49 50
000
ASUS43 KFSD 270902
RWRSD

WEATHER ROUNDUP FOR SOUTH DAKOTA
NATIONAL WEATHER SERVICE SIOUX FALLS SD
400 AM CDT SUN MAY 27 2018

NOTE: "FAIR" INDICATES FEW OR NO CLOUDS BELOW 12,000 FEET WITH NO
SIGNIFICANT WEATHER AND/OR OBSTRUCTIONS TO VISIBILITY.


SDZ001>005-009-010-012>017-271000-
NORTHWEST AND NORTH CENTRAL SOUTH DAKOTA

CITY           SKY/WX    TMP DP  RH WIND       PRES   REMARKS
BUFFALO          N/A     66  60  81 N20       29.68R
FAITH            N/A     68  63  84 SE13      29.66S
MOBRIDGE       CLOUDY    74  58  57 SE13      29.64F
$$

SDZ012>016-024>037-041>051-057-063-072>074-271000-
SOUTHWEST AND SOUTH CENTRAL SOUTH DAKOTA

CITY           SKY/WX    TMP DP  RH WIND       PRES   REMARKS
RAPID CTY ARPT CLOUDY    67  53  61 S6        29.69S
PIERRE         PTCLDY    73  59  61 SE10      29.66S
CUSTER         MOCLDY    63  42  46 VRB3      29.85F
ELLSWORTH AFB  CLOUDY    70  53  54 S9        29.68S
PHILIP         PTCLDY    69  56  62 NW5       29.65S
PINE RIDGE     MOCLDY    77  46  33 S23G32    29.71S
SPEARFISH      FAIR      70  46  43 NW16      29.78R
WINNER         FAIR      74  57  55 S13       29.72S
$$

SDZ004>011-016>023-039-040-271000-
NORTHEAST SOUTH DAKOTA

CITY           SKY/WX    TMP DP  RH WIND       PRES   REMARKS
ABERDEEN       PTCLDY    71  58  63 S8        29.71R
WATERTOWN      CLOUDY    69  52  54 SE8       29.76F
BROOKINGS      CLOUDY    66  53  63 SE13      29.77
SISSETON         N/A     65  54  67 CALM      29.71F
$$

SDZ017-020-022-023-036>040-048>070-271000-
SOUTHEAST SOUTH DAKOTA

CITY           SKY/WX    TMP DP  RH WIND       PRES   REMARKS
SIOUX FALLS    CLEAR     66  56  70 CALM      29.78R
HURON          MOCLDY    72  56  57 S12       29.72S
CHAMBERLAIN    PTCLDY    70  60  70 SE9       29.72F
MITCHELL       PTCLDY    69  58  67 SE8       29.74S
YANKTON        CLEAR     71  58  63 E10       29.76S
$$

ABBREVIATIONS USED IN REMARKS
   TC - TEMPERATURE IN CELSIUS
  WCI - WIND CHILL INDEX
   HX - HEAT INDEX
  VSB - VISIBILITY





USA.gov is the U.S. government's official web portal to all federal, state and local government web resources and services.